Regional Weather Roundup
Issued by NWS

Home | Current Version | Previous Version | Graphics & Text | Print | Product List | Glossary On
Versions: 1 2 3 4 5 6 7 8 9 10 11 12 13 14 15 16 17 18 19 20 21 22 23 24 25 26 27 28 29 30 31 32 33 34 35 36 37 38 39 40 41 42 43 44 45 46 47 48 49 50
000
ASUS43 KBIS 021102
RWRND

NORTH DAKOTA REGIONAL WEATHER ROUNDUP
NATIONAL WEATHER SERVICE BISMARCK ND
600 AM CDT TUE JUN 02 2015

NOTE: "FAIR" INDICATES FEW OR NO CLOUDS BELOW 12,000 FEET WITH NO
SIGNIFICANT WEATHER AND/OR OBSTRUCTIONS TO VISIBILITY.


NDZ001>003-009>011-017-021200-
NORTHWEST NORTH DAKOTA

CITY           SKY/WX    TMP DP  RH WIND       PRES   REMARKS
WILLISTON      LGT RAIN  62  58  86 NE13      29.79F
MINOT          CLOUDY    59  57  93 CALM      29.82S
MINOT AFB      CLOUDY    58  58 100 S5        29.81S
$$

NDZ018>021-031>035-040>046-021200-
SOUTHWEST NORTH DAKOTA

CITY           SKY/WX    TMP DP  RH WIND       PRES   REMARKS
BISMARCK       CLOUDY    63  57  81 CALM      29.80S
DICKINSON      CLOUDY    57  55  93 E13       29.76F
GARRISON         N/A     60  57  89 S5        29.82F
HETTINGER ARPT MOCLDY    59  54  83 NE21      29.80F
$$

NDZ004>008-012>016-024-026-027-054-021200-
NORTHEAST NORTH DAKOTA

CITY           SKY/WX    TMP DP  RH WIND       PRES   REMARKS
GRAND FORKS    TSTM      56  54  93 S16       29.85F FOG
GRND FRKS AFB  TSTM      57  55  92 S17       29.84R
DEVILS LAKE    CLOUDY    61  54  77 S10       29.81S
$$

NDZ022-023-025-028>030-036>039-047>053-021200-
SOUTHEAST NORTH DAKOTA

CITY           SKY/WX    TMP DP  RH WIND       PRES   REMARKS
FARGO          CLOUDY    62  49  62 S21       29.85S
JAMESTOWN      LGT RAIN  62  57  83 S6        29.83R
$$



USA.gov is the U.S. government's official web portal to all federal, state and local government web resources and services.